Location: Bouchavesnes-Bergen
(49.9859°N, 2.9203°E)
Time: 05:01:12
(UTC+00:00)

NOSS 3-2 (C) - Pass Details

Date: 09 March 2021
Orbit: 783 x 1429 km, 63.4° (Epoch: 04 April)

Event Time Altitude Azimuth Distance (km) Brightness Sun altitude
Rises 04:13:28 0° 316° (NW) 3,949 6.4 -20.1°
Reaches altitude 10° 04:16:02 10° 313° (NW) 3,075 5.8 -19.7°
Maximum altitude 04:23:24 62° 235° (SW) 1,435 4.0 -18.6°
Drops below altitude 10° 04:31:44 10° 158° (SSE) 3,458 6.4 -17.3°
Sets 04:34:47 0° 155° (SSE) 4,469 7.1 -16.8°
